Flag for Canada Weather past 2 weeks in Dieppe, New Brunswick, Canada

Now
36 °F

Clear.


Feels Like: 25 °F
Forecast: 28 / 37 °F
Wind: 20 mph from West

Location: Moncton

Current Time: Dec 27, 2014 at 12:40:33 AM

Latest Report: Dec 26, 2014 at 11:00 PM


Visibility: 15 mi

Pressure: 29.87 "Hg

Humidity: 60%

Dew point: 23 °F

Location of DieppeLocation

Historic Weather in Dieppe — Graph

°F

Dieppe temperature yesterday

Maximum temperature yesterday: 43 °F (at 1:00 PM)
Minimum temperature yesterday: 36 °F (at 7:53 AM)
Average temperature yesterday: 39 °F

Past Weeks' High & Low Weather Summary

 TemperatureHumidityPressure
High61 °F (Dec 25, 11:00 AM)100% (Dec 11, 11:00 PM)30.49 "Hg (Dec 11, 11:00 PM)
Low23 °F (Dec 23, 1:00 AM)42% (Dec 26, 3:00 PM)29.27 "Hg (Dec 25, 4:00 PM)
Average33 °F87%29.94 "Hg
* Reported Dec 11 11:00 PM — Dec 26 11:00 PM, Dieppe, Weather by CustomWeather, © 2014

Note: Actual official high and low records may vary slightly from our data, if they occured in-between our weather recording intervals... More about our weather records

Advertising

Dieppe weather history for previous 24 hours

 ConditionsComfort  
Time TempWeatherWind HumidityBarometerVisibility
11:00 PM
Dec 26
36 °FClear.20 mph60%29.87 "Hg15 mi
10:00 PM37 °FClear.20 mph56%29.87 "Hg15 mi
9:00 PM37 °FClear.17 mph56%29.86 "Hg15 mi
8:00 PM37 °FClear.20 mph52%29.85 "Hg15 mi
7:00 PM39 °FClear.23 mph48%29.83 "Hg15 mi
6:00 PM39 °FClear.20 mph48%29.80 "Hg15 mi
5:00 PM41 °FClear.21 mph45%29.79 "Hg15 mi
4:00 PM43 °FSunny.20 mph42%29.77 "Hg15 mi
3:00 PM43 °FPassing clouds.17 mph42%29.75 "Hg15 mi
2:00 PM43 °FPassing clouds.29 mph46%29.73 "Hg15 mi
1:00 PM43 °FPartly sunny.25 mph46%29.71 "Hg15 mi
12:00 PM41 °FPartly sunny.30 mph53%29.71 "Hg15 mi
11:00 AM41 °FPassing clouds.24 mph53%29.71 "Hg15 mi
10:00 AM39 °FPassing clouds.26 mph61%29.70 "Hg15 mi
9:00 AM37 °FPartly sunny.23 mph65%29.68 "Hg15 mi
8:04 AM36 °FPartly sunny.20 mph65%29.65 "Hg15 mi
7:53 AM36 °FPassing clouds.18 mph65%29.65 "Hg15 mi
7:00 AM37 °FPassing clouds.21 mph60%29.64 "Hg15 mi
6:00 AM37 °FPassing clouds.23 mph60%29.62 "Hg15 mi
5:00 AM39 °FPassing clouds.21 mph56%29.61 "Hg15 mi
4:00 AM39 °FOvercast.21 mph56%29.59 "Hg15 mi
3:00 AM41 °FOvercast.28 mph57%29.57 "Hg15 mi
2:00 AM41 °FOvercast.23 mph61%29.52 "Hg15 mi
1:00 AM41 °FPassing clouds.23 mph66%29.49 "Hg15 mi
12:00 AM41 °FOvercast.26 mph70%29.49 "Hg15 mi
Weather by CustomWeather, © 2014

See weather overviewHow to use our weather pages